Flag for U.S.A. Weather past 2 weeks in Plano, Texas, U.S.A.

Now
55 °F

Mostly cloudy.


Feels Like: 52 °F
Forecast: 35 / 57 °F
Wind: 10 mph from South

Location: McKinney Municipal Airport

Current Time: Feb 1, 2015 at 4:17:22 AM

Latest Report: Feb 1, 2015 at 2:53 AM


Visibility: 9 mi

Pressure: 29.86 "Hg

Humidity: 96%

Dew point: 54 °F

Location of PlanoLocation

Historic Weather in Plano — Graph

°F

Plano temperature yesterday

Maximum temperature yesterday: 53 °F (at 2:53 PM)
Minimum temperature yesterday: 43 °F (at 6:53 AM)
Average temperature yesterday: 48 °F

Past Weeks' High & Low Weather Summary

 TemperatureHumidityPressure
High78 °F (Jan 28, 1:53 PM)97% (Jan 22, 8:53 AM)30.54 "Hg (Jan 22, 8:53 AM)
Low29 °F (Jan 18, 7:53 AM)19% (Jan 18, 2:53 PM)29.86 "Hg (Feb 1, 2:53 AM)
Average50 °F61%30.16 "Hg
* Reported Jan 17 2:53 AM — Feb 1 2:53 AM, Plano, Weather by CustomWeather, © 2014

Note: Actual official high and low records may vary slightly from our data, if they occured in-between our weather recording intervals... More about our weather records

Advertising

Plano weather history for previous 24 hours

 ConditionsComfort  
Time TempWeatherWind HumidityBarometerVisibility
2:53 AM
Feb 1
55 °FMostly cloudy.10 mph96%29.86 "Hg9 mi
2:01 AM55 °FLight rain. Fog.8 mph96%29.86 "Hg4 mi
1:01 AM54 °FHeavy rain. Fog.14 mph97%29.86 "Hg2 mi
11:53 PM
Jan 31
51 °FLow clouds.14 mph96%29.89 "Hg7 mi
10:53 PM50 °FLight rain. Fog.9 mph93%29.91 "Hg4 mi
9:53 PM49 °FLight rain. Fog.9 mph97%29.94 "Hg6 mi
8:53 PM49 °FLight rain. Fog.7 mph93%29.97 "Hg6 mi
7:53 PM49 °FLight rain. Fog.10 mph93%29.98 "Hg5 mi
6:53 PM49 °FLight rain. Fog.3 mph90%30.02 "Hg5 mi
5:53 PM50 °FLight rain. Mostly cloudy.5 mph89%30.03 "Hg7 mi
4:53 PM49 °FRain. Fog.No wind90%30.03 "Hg4 mi
3:53 PM51 °FLight rain. Overcast.5 mph71%30.04 "Hg9 mi
2:53 PM53 °FLight rain. Overcast.13 mph59%30.05 "Hg10 mi
1:53 PM52 °FOvercast.15 mph55%30.08 "Hg10 mi
12:53 PM52 °FPartly sunny.13 mph53%30.13 "Hg10 mi
11:53 AM51 °FOvercast.16 mph50%30.18 "Hg10 mi
10:53 AM50 °FPartly sunny.9 mph54%30.23 "Hg10 mi
9:53 AM48 °FSunny.16 mph56%30.23 "Hg10 mi
8:53 AM45 °FOvercast.12 mph63%30.24 "Hg10 mi
7:53 AM44 °FOvercast.6 mph65%30.26 "Hg10 mi
6:53 AM43 °FPassing clouds.5 mph68%30.26 "Hg10 mi
5:53 AM44 °FPassing clouds.3 mph63%30.26 "Hg10 mi
4:53 AM44 °FClear.5 mph63%30.25 "Hg10 mi
Weather by CustomWeather, © 2014

See weather overviewHow to use our weather pages